Preview of NWS' New Version of Forecast
This preview is not operational and should not be used for support decisions.

Regional Weather Roundup (RWR)

Issued by National Weather Service (NWS)

                            
000
ASUS46 KPQR 201510
RWROR 

OREGON REGIONAL WEATHER ROUNDUP
NATIONAL WEATHER SERVICE PORTLAND OR
800 AM PDT TUE AUG 20 2019

NOTE: "FAIR" INDICATES FEW OR NO CLOUDS BELOW 12,000 FEET WITH
NO SIGNIFICANT WEATHER AND/OR OBSTRUCTIONS TO VISIBILITY.

ORZ001>013-201600-
NORTHWEST OREGON

  
CITY           SKY/WX    TMP DP  RH WIND       PRES   REMARKS
ASTORIA        MOSUNNY   56  53  90 E3        29.95R                  
TILLAMOOK      MOSUNNY   55  52  88 CALM      29.99R                  
NEWPORT        MOSUNNY   57  55  94 CALM      30.01S                  
FLORENCE       CLOUDY    59  55  88 SE3       30.00R                  
PORTLAND       MOSUNNY   62  57  83 CALM      29.96R                  
VANCOUVER WA   SUNNY     62  56  80 CALM      29.96R                  
SCAPPOOSE      SUNNY     60  55  83 CALM      29.95R                  
HILLSBORO      SUNNY     57  53  86 CALM      29.96R                  
AURORA         SUNNY     60  54  80 CALM      29.97R                  
MCMINNVILLE    SUNNY     58  55  90 CALM      29.96R                  
SALEM          SUNNY     60  54  80 CALM      29.96R                  
CORVALLIS      SUNNY     61  55  81 NW3       29.98R                  
EUGENE         MOSUNNY   61  55  81 S7        29.98R                  
CRESWELL       SUNNY     59  55  88 CALM      29.97R                  
$$

ORZ021-028-201600-
SOUTHWEST OREGON

  
CITY           SKY/WX    TMP DP  RH WIND       PRES   REMARKS
NORTH BEND     CLOUDY    56  56 100 SE7       30.03R FOG              
BROOKINGS      CLOUDY    53  53 100 S5        30.04S FOG              
ROSEBURG       SUNNY     62  56  80 CALM      29.99R                  
SEXTON SUMMIT  SUNNY     64  51  62 S3        30.06R                  
GRANTS PASS    FAIR      63  54  72 CALM      30.02R                  
MEDFORD        SUNNY     64  52  64 NW3       29.98R                  
$$

ORZ014>016-041-201600-
COLUMBIA GORGE

  
CITY           SKY/WX    TMP DP  RH WIND       PRES   REMARKS
TROUTDALE      SUNNY     60  53  77 E3        29.97R                  
HOOD RIVER     SUNNY     59  48  67 CALM      29.97R                  
THE DALLES     SUNNY     65  53  65 CALM      29.93R                  
$$

ORZ029>031-041-044-049-050-061>064-502-503-505>511-201600-
EASTERN OREGON

  
CITY           SKY/WX    TMP DP  RH WIND       PRES   REMARKS
MADRAS         SUNNY     63  50  63 S5        30.02R                  
REDMOND        SUNNY     65  47  52 SE6       30.03S                  
BEND           SUNNY     64  50  59 S7        30.04R                  
PRINEVILLE     SUNNY     61  45  55 CALM      30.04S                  
KLAMATH FALLS  SUNNY     57  42  57 SE7       30.11R                  
LAKEVIEW       SUNNY     53  37  54 N5        30.16R                  
HERMISTON      SUNNY     69  47  45 S5        29.92S                  
PENDLETON      SUNNY     67  45  45 SE5       29.94F                  
JOHN DAY       MOSUNNY   62  42  48 E7        30.06S                  
MEACHAM        MOSUNNY   50  41  71 CALM      30.05F                  
LA GRANDE      PTSUNNY   58  46  64 CALM      30.05S                  
BAKER CITY     PTSUNNY   59  50  72 CALM      30.06R                  
BURNS          MOSUNNY   58  39  49 NE3       30.10R                  
ROME             N/A     68  29  23 SW3       30.06S                  
ONTARIO        MOSUNNY   72  48  42 W5        29.97S                  
$$